Weather Roundup
Issued by NWS Springfield, MO

Home | Current Version | Previous Version | Text Only | Print | Product List | Glossary On
Versions: 1 2 3 4 5 6 7 8 9 10 11 12 13 14 15 16 17 18 19 20 21 22 23 24 25 26 27 28 29 30 31 32 33 34 35 36 37 38 39 40 41 42 43 44 45 46 47 48 49 50
000
NZUS99 KSGF 211207
HRRSGF

HOURLY WEATHER
NATIONAL WEATHER SERVICE SPRINGFIELD MO
700 AM CDT SAT OCT 21 2017

......SGF CWA......

CITY           SKY/WX    TMP DP  RH WIND       PRES   REMARKS
SPRINGFIELD    PTCLDY    62  57  83 S17G25    29.95S
6HR MIN TEMP:  62; 6HR MAX TEMP:  63;

JOPLIN         MOCLDY    65  60  84 S16       29.92R
6HR MIN TEMP:  63; 6HR MAX TEMP:  65; 6HR PCP: TRACE;

WEST PLAINS    LGT RAIN  62  58  86 SE6       30.07S
6HR MIN TEMP:  60; 6HR MAX TEMP:  64; 6HR PCP:  0.03;

ROLLA          CLOUDY    65  57  75 S17       30.01S
6HR MIN TEMP:  63; 6HR MAX TEMP:  65;

OSAGE BEACH    CLEAR     63  56  78 S10       29.97S
BRANSON        PTCLDY    63  57  82 SE7       30.00S

......SURROUNDING SGF CWA......

CITY           SKY/WX    TMP DP  RH WIND       PRES   REMARKS
CHANUTE        CLOUDY    66  59  78 S20G32    29.87S
PARSONS        CLOUDY    66  59  78 S9G17     29.89R
COFFEYVILLE    CLOUDY    67  61  81 S16G28    29.89
EMPORIA        CLOUDY    64  59  83 S22G32    29.78R
GROVE OK       CLOUDY    68  61  77 S9        29.93R
ROGERS AR      PTCLDY    64  59  82 SE10      29.96S
SILOAM SPRINGS CLOUDY    66  61  84 S12G20    29.95S
HARRISON AR    PTCLDY    63  59  87 SE7       30.01S
NEAR YELLVILLE MOCLDY    60  56  86 SE3       30.02F

......KANSAS AND MISSOURI......

CITY           SKY/WX    TMP DP  RH WIND       PRES   REMARKS
KANSAS CTY INT CLOUDY    66  58  75 S24G32    29.82R
DOWNTOWN KC    CLOUDY    67  58  72 S14G26    29.84R
COLUMBIA       CLEAR     62  55  77 S12       29.96S
SEDALIA        CLOUDY    64  58  80 S14       29.93S
ST JOSEPH      LGT RAIN  66  60  81 S15G30    29.78S
ST LOUIS       MOCLDY    63  54  72 SE12      30.04F
SPIRIT OF STL  LGT RAIN  65  55  70 S5        30.02S
KIRKSVILLE     CLEAR     62  57  83 S14       29.91F
WICHITA        CLOUDY    69  65  86 S21G30    29.74S
TOPEKA         CLOUDY    68  61  78 S18G32    29.76S
OLATHE         CLOUDY    63  57  81 S15       29.85S

......TENNESSEE......

CITY           SKY/WX    TMP DP  RH WIND       PRES   REMARKS
MEMPHIS        CLOUDY    64  52  64 SE8       30.10S
NASHVILLE      CLOUDY    52  46  80 SE3       30.22R

......ARKANSAS.......

CITY           SKY/WX    TMP DP  RH WIND       PRES   REMARKS
FAYETTEVILLE   MOCLDY    65  62  90 S9G17     29.96R
FT SMITH       PTCLDY    66  61  84 E7        29.96S
LITTLE ROCK    CLOUDY    63  60  90 E3        30.06R

......OKLAHOMA.......

CITY           SKY/WX    TMP DP  RH WIND       PRES   REMARKS
TULSA          CLOUDY    67  62  84 SE15      29.86F
PONCA CITY     CLEAR     68  61  78 S23G33    29.79S
MCALESTER      CLOUDY    70  64  81 VRB7      29.93R
OKLAHOMA CITY  MOCLDY    68  65  90 S14       29.83R

......IOWA............

CITY           SKY/WX    TMP DP  RH WIND       PRES   REMARKS
DES MOINES     CLOUDY    65  57  75 S18G26    29.77R
QUAD CITIES    CLOUDY    65  50  58 S16G24    29.95R

......ILLINOIS........

CITY           SKY/WX    TMP DP  RH WIND       PRES   REMARKS
QUINCY         PTCLDY    64  53  67 S14       29.97R
CHICAGO        CLOUDY    61  49  64 S13       30.05S




USA.gov is the U.S. government's official web portal to all federal, state and local government web resources and services.